[[{"header":{"parameterUnit":"m.s-1","parameterCategory":1,"la1":30.2991,"la2":30.254,"lo1":-89.0895,"lo2":-89.0444,"dy":0.0017,"dx":0.0017,"nx":28,"ny":28,"refTime":"2023-09-22T09:00:00:Z","depth":0,"parameterNumber":2,"parameterNumberName":"U-component_of_WINDS"},"data":[0,0,0,0,0,0,0,0,0,0,0,0,0,0,0,0,0,0,0,0,0,0,0,0,0,0,0,0,0,0,0,0,0,0,0,0,0,0,0,0,0,0,0,0,0,0,0,0,0,0,0,0,0,0,0,0,0,0,-0.7824,-0.7825,0,-0.7934,-0.7935,-0.7937,-0.7888,-0.7886,-0.7883,-0.788,-0.8001,-0.8006,-0.8012,0,0,0,0,0,0,0,0,0,0,0,0,0,-0.7579,-0.7584,-0.7824,-0.7825,-0.7827,-0.7934,-0.7935,-0.7937,-0.7889,-0.7886,-0.7882,-0.7879,-0.7999,-0.8006,-0.8013,0,0,0,0,0,0,0,0,0,0,0,0,0,-0.7687,-0.7585,-0.7824,-0.7816,-0.7816,-0.7934,-0.7935,-0.7937,-0.789,-0.7886,-0.7881,-0.7878,-0.7997,-0.8005,-0.8014,-0.8148,0,0,-0.804,-0.8044,0,0,0,0,0,0,0,0,-0.7681,-0.7696,-0.7815,-0.7816,-0.7817,-0.7893,-0.7893,-0.8008,-0.7891,-0.7862,-0.788,-0.7876,-0.7969,-0.7979,-0.8009,-0.8154,-0.8159,-0.8041,-0.8046,-0.805,-0.8052,0,0,0,0,0,0,0,-0.7674,-0.7691,-0.7868,-0.7817,-0.7818,-0.7809,-0.7819,-0.7915,-0.7937,-0.7864,-0.7861,-0.7874,-0.7969,-0.8001,-0.8012,-0.8161,-0.804,-0.8048,-0.8053,-0.8057,-0.8422,-0.8426,0,0,0,0,0,0,-0.7665,-0.7685,-0.7864,-0.7871,-0.7737,-0.7816,-0.7828,-0.7873,-0.7936,-0.7941,-0.7877,-0.7871,-0.7988,-0.8002,-0.8016,-0.8179,-0.8049,-0.8058,-0.8062,-0.8418,-0.8423,-0.8428,0,0,0,0,0,0,-0.766,-0.7682,-0.786,-0.7777,-0.7799,-0.7825,-0.7875,-0.7877,-0.791,-0.7946,-0.795,-0.7906,-0.7986,-0.8004,-0.8115,-0.8182,-0.8061,-0.8069,-0.8412,-0.8419,-0.8425,-0.8505,0,0,0,0,0,0,-0.7653,-0.768,-0.773,-0.7779,-0.7804,-0.7956,-0.7879,-0.7882,-0.7924,-0.7917,-0.7974,-0.798,-0.7984,-0.8103,-0.8124,-0.8192,-0.8076,-0.8406,-0.8415,-0.8423,-0.8496,-0.8513,-0.8528,0,0,0,0,0,-0.7645,-0.775,-0.7733,-0.7755,-0.7867,-0.796,-0.7974,-0.7975,-0.7929,-0.7981,-0.8004,-0.7978,-0.817,-0.8114,-0.8138,-0.821,-0.8402,-0.8413,-0.8423,-0.8489,-0.851,-0.8528,0,0,0,0,0,0,-0.7712,-0.7756,-0.7738,-0.7861,-0.7907,-0.7951,-0.8017,-0.7997,-0.8058,-0.805,-0.805,-0.8063,-0.8179,-0.8205,-0.8141,-0.8343,-0.828,-0.8295,-0.8322,-0.8343,-0.8358,-0.8351,-0.8083,0,0,0,0,0,-0.774,-0.781,-0.7846,-0.7951,-0.7974,-0.7992,-0.8032,-0.8028,-0.8077,-0.8096,-0.8128,-0.8178,-0.8249,-0.8297,-0.8365,-0.8499,-0.8512,-0.8559,-0.8575,-0.8588,-0.8603,-0.8677,-0.8699,-0.8462,-0.8461,-0.8461,0,0,-0.7801,-0.7834,-0.7878,-0.7965,-0.8,-0.8075,-0.8008,-0.809,-0.8146,-0.811,-0.8217,-0.8241,-0.8297,-0.842,-0.8476,-0.8446,-0.867,-0.8601,-0.8611,-0.8619,-0.8689,-0.8712,-0.8732,-0.8468,-0.8467,-0.8466,0,0,-0.795,-0.7981,-0.8073,-0.8108,-0.816,-0.8171,-0.8192,-0.824,-0.8254,-0.836,-0.8335,-0.8402,-0.8525,-0.8566,-0.8603,-0.8766,-0.8745,-0.8788,-0.8872,-0.8944,-0.8963,-0.898,-0.904,-0.9061,-0.8801,-0.8802,-0.8802,0,-0.8021,-0.8129,-0.8123,-0.8206,-0.8246,-0.8213,-0.8307,-0.8342,-0.8416,-0.8445,-0.8408,-0.8562,-0.8597,-0.873,-0.8769,-0.88,-0.8827,-0.8783,-0.896,-0.8977,-0.8993,-0.905,-0.9072,-0.8807,-0.8806,-0.8806,-0.8805,0,-0.8214,-0.8289,-0.8357,-0.8426,-0.8473,-0.8561,-0.857,-0.8619,-0.861,-0.8625,-0.8735,-0.8775,-0.8851,-0.8881,-0.8875,-0.9014,-0.8994,-0.8959,-0.8896,-0.902,-0.9074,-0.9096,-0.8814,-0.8812,-0.8811,-0.8809,0,0,-0.8412,-0.8473,-0.8498,-0.8529,-0.8583,-0.8643,-0.873,-0.8801,-0.8844,-0.8895,-0.897,-0.9074,-0.9042,-0.9084,-0.9081,-0.9144,-0.9272,-0.9102,-0.9103,-0.9134,-0.943,-0.9458,-0.9484,-0.9257,-0.9261,-0.9264,-0.9426,0,-0.8567,-0.8717,-0.8713,-0.8854,-0.8925,-0.8893,-0.8969,-0.9012,-0.9028,-0.9092,-0.911,-0.9184,-0.9135,-0.916,-0.9221,-0.9244,-0.9332,-0.9232,-0.933,-0.9334,-0.932,-0.9511,-0.9541,-0.9692,-0.9447,-0.9451,-0.9453,0,-0.8768,-0.8823,-0.897,-0.9014,-0.9043,-0.9112,-0.9177,-0.9237,-0.9285,-0.9292,-0.9338,-0.9325,-0.9416,-0.9347,-0.9473,-0.9405,-0.9445,-0.9462,-0.9468,-0.948,-0.9403,-0.9531,-0.974,-0.9764,-0.9486,-0.9484,-0.9481,0,-0.8901,-0.9011,-0.9114,-0.9141,-0.9193,-0.9242,-0.9267,-0.931,-0.9353,-0.9411,-0.9439,-0.9507,-0.9545,-0.9599,-0.9605,-0.9554,-0.9733,-0.9665,-0.9744,-0.9744,-0.9786,-0.9784,-1.0007,-0.9807,-0.9806,-0.9806,-0.9805,0,-0.9076,-0.9168,-0.9174,-0.9237,-0.934,-0.9334,-0.9437,-0.9457,-0.9496,-0.9564,-0.9541,-0.9606,-0.9609,-0.9677,-0.9683,-0.9787,-0.9804,-0.9814,-0.9816,-0.9818,-0.9817,-0.9847,-0.9837,-0.9812,-0.9811,-0.9809,-0.9808,0,-0.9243,-0.925,-0.936,-0.9399,-0.9411,-0.9485,-0.952,-0.9582,-0.9593,-0.9681,-0.9701,-0.9721,-0.9799,-0.9809,-0.9902,-0.9905,-1.0032,-1.0021,-1.0015,-1.0015,-1.0094,-1.0088,-1.0347,-1.0382,-1.0156,-1.0158,-1.016,0,-0.9356,-0.9425,-0.9471,-0.9514,-0.954,-0.961,-0.9653,-0.965,-0.9696,-0.9755,-0.981,-0.9885,-0.9945,-1.0072,-1.0096,-1.0167,-1.0159,-1.0244,-1.017,-1.017,-1.0163,-1.016,-1.0168,-1.026,-1.0263,-1.0265,-1.0266,0,-0.9556,-0.9556,-0.9617,-0.968,-0.9731,-0.9781,-0.9828,-0.9865,-0.9868,-0.9921,-0.9999,-1.0045,-1.0138,-1.0214,-1.0283,-1.031,-1.0291,-1.0289,-1.0312,-1.0317,-1.0312,-1.0318,-1.0058,-1.0284,-1.0282,-1.0281,-1.028,-1.0279,-0.9701,-0.9762,-0.9803,-0.9873,-0.9907,-0.9951,-1.001,-1.0028,-1.0092,-1.0166,-1.016,-1.0247,-1.0293,-1.0384,-1.0416,-1.0485,-1.0457,-1.049,-1.0498,-1.0507,-1.0516,-1.0298,-1.0497,-1.0497,-1.0496,-1.0496,-1.0496,0,-0.9903,-0.9927,-0.999,-1.0055,-1.011,-1.0082,-1.0132,-1.0181,-1.0256,-1.03,-1.0358,-1.0448,-1.0521,-1.055,-1.0622,-1.0672,-1.0664,-1.0691,-1.0689,-1.0696,-1.0536,-1.051,-1.0696,-1.0696,-1.0696,-1.0696,-1.0695,-1.0695,-1.0014,-1.0115,-1.0119,-1.0238,-1.0262,-1.0344,-1.0376,-1.0417,-1.0451,-1.0552,-1.0611,-1.0628,-1.0667,-1.074,-1.0807,-1.0813,-1.0842,-1.0874,-1.0877,-1.0727,-1.0707,-1.0688,-1.0664,-1.0879,-1.0879,-1.1032,-1.1033,-1.1034]},{"header":{"parameterUnit":"m.s-1","parameterCategory":1,"la1":30.2991,"la2":30.254,"lo1":-89.0895,"lo2":-89.0444,"dy":0.0017,"dx":0.0017,"nx":28,"ny":28,"refTime":"2023-09-22T09:00:00:Z","depth":0,"parameterNumber":3,"parameterNumberName":"V-component_of_WINDS"},"data":[0,0,0,0,0,0,0,0,0,0,0,0,0,0,0,0,0,0,0,0,0,0,0,0,0,0,0,0,0,0,0,0,0,0,0,0,0,0,0,0,0,0,0,0,0,0,0,0,0,0,0,0,0,0,0,0,0,0,-2.8664,-2.8665,0,-2.8777,-2.8779,-2.878,-2.8767,-2.8765,-2.8764,-2.8762,-2.8874,-2.8878,-2.8883,0,0,0,0,0,0,0,0,0,0,0,0,0,-2.8432,-2.8436,-2.8664,-2.8665,-2.8666,-2.8777,-2.8779,-2.878,-2.8767,-2.8765,-2.8763,-2.8761,-2.8872,-2.8878,-2.8883,0,0,0,0,0,0,0,0,0,0,0,0,0,-2.8538,-2.8438,-2.8663,-2.8674,-2.8676,-2.8777,-2.8779,-2.8781,-2.8768,-2.8765,-2.8763,-2.876,-2.8871,-2.8877,-2.8884,-2.8981,0,0,-2.8906,-2.8909,0,0,0,0,0,0,0,0,-2.8532,-2.8546,-2.8671,-2.8673,-2.8676,-2.8755,-2.8738,-2.8848,-2.8769,-2.8733,-2.8762,-2.8759,-2.8836,-2.8846,-2.8873,-2.8986,-2.8991,-2.8906,-2.891,-2.8913,-2.8915,0,0,0,0,0,0,0,-2.8524,-2.8541,-2.8708,-2.8672,-2.8675,-2.8671,-2.8683,-2.8759,-2.8798,-2.8736,-2.8735,-2.8749,-2.8837,-2.8866,-2.8876,-2.8993,-2.8906,-2.8912,-2.8916,-2.8919,-2.9191,-2.9193,0,0,0,0,0,0,-2.8515,-2.8535,-2.8705,-2.8712,-2.8596,-2.8678,-2.8691,-2.8732,-2.8797,-2.8805,-2.8751,-2.8748,-2.8856,-2.8867,-2.8879,-2.8997,-2.8913,-2.892,-2.8924,-2.9188,-2.9191,-2.9194,0,0,0,0,0,0,-2.851,-2.853,-2.87,-2.8623,-2.8645,-2.8684,-2.8731,-2.8736,-2.8765,-2.8809,-2.8815,-2.8774,-2.8854,-2.887,-2.8956,-2.9001,-2.8923,-2.8929,-2.9184,-2.9189,-2.9193,-2.9233,0,0,0,0,0,0,-2.8503,-2.8529,-2.8567,-2.8624,-2.8649,-2.8776,-2.8734,-2.874,-2.8778,-2.8775,-2.8832,-2.8839,-2.8853,-2.8946,-2.8963,-2.9009,-2.8935,-2.918,-2.9186,-2.9191,-2.9228,-2.9238,-2.9247,0,0,0,0,0,-2.8495,-2.8573,-2.8569,-2.8589,-2.8698,-2.8779,-2.8793,-2.8809,-2.8782,-2.882,-2.8848,-2.8837,-2.8993,-2.8955,-2.8974,-2.9023,-2.9177,-2.9184,-2.9191,-2.9223,-2.9236,-2.9247,0,0,0,0,0,0,-2.8518,-2.858,-2.8577,-2.8676,-2.8722,-2.8777,-2.8825,-2.8822,-2.8876,-2.8871,-2.8887,-2.89,-2.8987,-2.9013,-2.897,-2.9119,-2.9081,-2.9092,-2.9099,-2.9112,-2.9121,-2.9113,-2.8941,0,0,0,0,0,-2.8535,-2.8597,-2.8647,-2.873,-2.8753,-2.8785,-2.8821,-2.883,-2.8878,-2.8897,-2.8932,-2.8978,-2.9037,-2.9076,-2.9133,-2.9231,-2.9243,-2.9274,-2.9284,-2.9292,-2.9301,-2.9354,-2.9368,-2.9217,-2.9217,-2.9217,0,0,-2.8569,-2.8611,-2.8649,-2.8735,-2.8772,-2.8835,-2.8802,-2.887,-2.8916,-2.8907,-2.8991,-2.9018,-2.9071,-2.9164,-2.9206,-2.9188,-2.9345,-2.93,-2.9306,-2.9311,-2.9363,-2.9377,-2.939,-2.9221,-2.9221,-2.922,0,0,-2.8665,-2.8703,-2.8776,-2.8814,-2.8871,-2.8892,-2.8909,-2.8965,-2.8983,-2.9068,-2.9062,-2.9116,-2.9219,-2.9256,-2.9289,-2.9398,-2.939,-2.9416,-2.9467,-2.9519,-2.953,-2.9541,-2.958,-2.9593,-2.9425,-2.9425,-2.9425,0,-2.87,-2.8796,-2.8813,-2.8882,-2.8919,-2.8916,-2.8989,-2.9024,-2.9096,-2.9122,-2.9101,-2.9229,-2.9264,-2.9365,-2.9392,-2.9419,-2.9438,-2.941,-2.9528,-2.9539,-2.9549,-2.9586,-2.96,-2.9428,-2.9428,-2.9427,-2.9427,0,-2.8837,-2.8903,-2.8955,-2.9026,-2.9069,-2.914,-2.9166,-2.9208,-2.9212,-2.9235,-2.9321,-2.9363,-2.9428,-2.9453,-2.9457,-2.9555,-2.9542,-2.9524,-2.9486,-2.9566,-2.96,-2.9615,-2.9432,-2.9431,-2.943,-2.9429,0,0,-2.895,-2.903,-2.9048,-2.9081,-2.9143,-2.9194,-2.9264,-2.9329,-2.9364,-2.9414,-2.9472,-2.9559,-2.9543,-2.958,-2.9588,-2.9634,-2.9718,-2.9611,-2.9612,-2.9629,-2.9827,-2.9839,-2.9856,-2.9713,-2.9716,-2.9718,-2.9822,0,-2.9051,-2.9176,-2.9193,-2.9303,-2.9364,-2.9361,-2.9422,-2.9466,-2.9489,-2.9543,-2.9567,-2.9629,-2.9603,-2.9626,-2.9671,-2.9698,-2.9757,-2.9691,-2.9766,-2.9768,-2.9753,-2.9874,-2.9888,-2.9984,-2.9836,-2.9838,-2.984,0,-2.9186,-2.9241,-2.9358,-2.9412,-2.9438,-2.9493,-2.9554,-2.9606,-2.9655,-2.9669,-2.971,-2.9713,-2.9784,-2.9743,-2.984,-2.9794,-2.9826,-2.9844,-2.9848,-2.9855,-2.9809,-2.9884,-3.0015,-3.003,-2.9862,-2.986,-2.9859,0,-2.9256,-2.9359,-2.9442,-2.947,-2.9535,-2.9574,-2.9602,-2.965,-2.9688,-2.9741,-2.9765,-2.9825,-2.9858,-2.9903,-2.9921,-2.989,-3.0017,-2.9978,-3.0029,-3.0029,-3.0056,-3.0054,-3.0194,-3.0077,-3.0077,-3.0076,-3.0076,0,-2.9367,-2.9439,-2.9475,-2.9526,-2.9605,-2.9624,-2.9701,-2.9728,-2.977,-2.9826,-2.9826,-2.9878,-2.9899,-2.9953,-2.9968,-3.0046,-3.006,-3.0072,-3.0075,-3.0072,-3.0071,-3.0093,-3.0086,-3.008,-3.0079,-3.0079,-3.0078,0,-2.9459,-2.9486,-2.9577,-2.9632,-2.9647,-2.9703,-2.9749,-2.9798,-2.982,-2.989,-2.9908,-2.9942,-3.0006,-3.003,-3.0107,-3.0117,-3.0207,-3.0204,-3.019,-3.0191,-3.0241,-3.0236,-3.04,-3.0422,-3.029,-3.0292,-3.0293,0,-2.9528,-2.9583,-2.9644,-2.9682,-2.9713,-2.9773,-2.9813,-2.9832,-2.9873,-2.9934,-2.9975,-3.0039,-3.0091,-3.0194,-3.0225,-3.0284,-3.0282,-3.0336,-3.0291,-3.0286,-3.0283,-3.0279,-3.0284,-3.0344,-3.0345,-3.0346,-3.0347,0,-2.9648,-2.9659,-2.9716,-2.9778,-2.9825,-2.9875,-2.9922,-2.9953,-2.998,-3.0025,-3.0091,-3.0132,-3.0212,-3.0275,-3.0336,-3.0363,-3.036,-3.0361,-3.0376,-3.0373,-3.0363,-3.0369,-3.0213,-3.0357,-3.0356,-3.0355,-3.0355,-3.0355,-2.973,-2.9779,-2.983,-2.9893,-2.9932,-2.9976,-3.0025,-3.0054,-3.011,-3.0178,-3.0185,-3.0257,-3.0304,-3.0385,-3.0416,-3.0471,-3.0456,-3.0478,-3.0483,-3.0488,-3.0492,-3.0355,-3.0482,-3.0482,-3.0481,-3.0481,-3.0481,0,-2.9849,-2.9882,-2.9941,-3.0008,-3.0058,-3.0052,-3.0104,-3.0146,-3.0209,-3.0254,-3.0306,-3.0382,-3.0443,-3.048,-3.0541,-3.0578,-3.0577,-3.0593,-3.059,-3.0597,-3.0502,-3.0483,-3.0592,-3.0592,-3.0592,-3.0592,-3.0592,-3.0592,-2.9917,-2.9999,-3.0016,-3.0117,-3.0148,-3.022,-3.025,-3.0291,-3.0327,-3.0413,-3.0464,-3.0488,-3.0529,-3.0593,-3.0649,-3.0658,-3.068,-3.0697,-3.0704,-3.0615,-3.0603,-3.0592,-3.0575,-3.0702,-3.0702,-3.0795,-3.0796,-3.0796]}]]